Berlin, MD

3:18 PM EST on January 24, 2017 (GMT -0500)
Ocean City Municipal

Weather History for KOXB - December, 2012

Change the Weather History Date:

Monday, December 10, 2012

  Actual Average (KSBY) Record (KSBY)
Temperature  
Mean Temperature 57 °F -  
Max Temperature 61 °F 51 °F 73 °F (1966)
Min Temperature 53 °F 32 °F 14 °F (1927)
Degree Days  
Heating Degree Days 8    
Growing Degree Days 7 (Base 50)    
Moisture  
Dew Point 57 °F    
Average Humidity 99    
Maximum Humidity 100    
Minimum Humidity 90    
Precipitation  
Precipitation 0.01 in - - ()
Sea Level Pressure  
Sea Level Pressure 29.78 in    
Wind  
Wind Speed 8 mph (SW)    
Max Wind Speed 15 mph    
Max Gust Speed 24 mph    
Visibility 5 miles    
Events Fog , Rain    
Averages and records for this station are not official NWS values.
T = Trace of Precipitation, MM = Missing Value Source: NWS Daily Summary

Daily Weather History Graph

Daily Weather History Graph

Search for Another Location

Airport or City:

Trip Planner

Search our weather history database for the weather conditions in past years. The results will help you decide how hot, cold, wet, or windy it might be!

Date:

Astronomy

Dec. 10, 2012 Rise Set
Actual Time 7:06 AM EST 4:40 PM EST
Civil Twilight 6:37 AM EST 5:09 PM EST
Nautical Twilight 6:04 AM EST 5:42 PM EST
Astronomical Twilight 5:32 AM EST 6:14 PM EST
Moon 3:49 AM EST (12/10) 2:26 PM EST (12/10)
Length of Visible Light 10h 32m
Length of Day
9h 33m
Waning Crescent, 10% of the Moon is Illuminated
Dec 10
Waning Crescent
Dec 13
New
Dec 20
First Quarter
Dec 28
Full
Jan 4
Last Quarter

Hourly Weather History & Observations

Time (EST) Temp. Dew Point Humidity Pressure Visibility Wind Dir Wind Speed Gust Speed Precip Events Conditions
12:11 AM 53.6 °F 51.8 °F 94% 30.00 in 8.0 mi SSW 5.8 mph - N/A   Overcast
12:53 AM 54.0 °F 52.0 °F 93% 29.99 in 10.0 mi SSW 6.9 mph - N/A   Overcast
1:53 AM 57.0 °F 55.0 °F 93% 29.97 in 10.0 mi SW 12.7 mph 21.9 mph N/A   Overcast
2:18 AM 55.4 °F 55.4 °F 100% 29.96 in 10.0 mi SSW 10.4 mph - N/A   Mostly Cloudy
2:53 AM 54.0 °F 54.0 °F 100% 29.95 in 9.0 mi SSW 6.9 mph - N/A   Scattered Clouds
3:03 AM 53.6 °F 53.6 °F 100% 29.95 in 9.0 mi SSW 8.1 mph - N/A   Mostly Cloudy
3:22 AM 53.6 °F 53.6 °F 100% 29.94 in 7.0 mi SSW 4.6 mph - N/A   Scattered Clouds
3:39 AM 53.6 °F 53.6 °F 100% 29.93 in 6.0 mi South 4.6 mph - N/A   Mostly Cloudy
3:50 AM 53.6 °F 53.6 °F 100% 29.92 in 6.0 mi SSW 5.8 mph - N/A   Mostly Cloudy
3:53 AM 53.1 °F 53.1 °F 100% 29.92 in 6.0 mi SSW 5.8 mph - N/A   Mostly Cloudy
4:14 AM 53.6 °F 53.6 °F 100% 29.91 in 6.0 mi SSW 4.6 mph - N/A   Mostly Cloudy
4:25 AM 53.6 °F 53.6 °F 100% 29.91 in 6.0 mi Variable 4.6 mph - N/A   Overcast
4:53 AM 54.0 °F 54.0 °F 100% 29.90 in 7.0 mi SSW 4.6 mph - N/A   Overcast
5:53 AM 55.0 °F 55.0 °F 100% 29.89 in 7.0 mi SSW 8.1 mph - N/A   Overcast
6:53 AM 54.0 °F 54.0 °F 100% 29.87 in 5.0 mi SSW 4.6 mph - N/A   Overcast
8:53 AM 57.0 °F 57.0 °F 100% 29.85 in 7.0 mi SW 10.4 mph 17.3 mph N/A   Overcast
9:26 AM 57.2 °F 57.2 °F 100% 29.84 in 2.5 mi SSW 12.7 mph 19.6 mph N/A   Overcast
9:38 AM 57.2 °F 57.2 °F 100% 29.84 in 1.2 mi SW 11.5 mph - N/A   Overcast
9:50 AM 57.2 °F 57.2 °F 100% 29.84 in 0.5 mi SSW 9.2 mph - N/A Fog Fog
9:53 AM 57.0 °F 57.0 °F 100% 29.84 in 0.5 mi SSW 11.5 mph - N/A Fog Fog
10:00 AM 57.2 °F 57.2 °F 100% 29.83 in 0.2 mi SSW 10.4 mph 16.1 mph N/A Fog Fog
10:19 AM 57.2 °F 57.2 °F 100% 29.82 in 0.5 mi SSW 11.5 mph - N/A Fog Fog
10:28 AM 57.2 °F 57.2 °F 100% 29.82 in 1.2 mi SW 12.7 mph 18.4 mph N/A   Overcast
10:45 AM 59.0 °F 59.0 °F 100% 29.81 in 0.8 mi SW 15.0 mph 24.2 mph N/A   Overcast
10:53 AM 59.0 °F 59.0 °F 100% 29.81 in 1.2 mi SW 13.8 mph 20.7 mph N/A   Overcast
11:02 AM 60.8 °F 60.8 °F 100% 29.80 in 3.0 mi SW 11.5 mph - 0.00 in Rain Light Rain
11:53 AM 57.0 °F 57.0 °F 100% 29.75 in 0.5 mi SSW 9.2 mph - 0.01 in Fog Fog
12:01 PM 55.4 °F 55.4 °F 100% 29.75 in 0.2 mi SSW 4.6 mph - N/A Fog Fog
12:27 PM 57.2 °F 57.2 °F 100% 29.73 in 0.8 mi SSW 9.2 mph 16.1 mph N/A   Mist
12:53 PM 59.0 °F 59.0 °F 100% 29.70 in 0.5 mi SSW 11.5 mph 20.7 mph N/A Fog Fog
1:07 PM 59.0 °F 59.0 °F 100% 29.68 in 1.2 mi SSW 10.4 mph - N/A   Overcast
1:28 PM 60.8 °F 60.8 °F 100% 29.67 in 2.5 mi SW 11.5 mph - N/A   Mist
1:35 PM 60.8 °F 60.8 °F 100% 29.67 in 8.0 mi WSW 9.2 mph - N/A   Unknown
1:41 PM 59.0 °F 59.0 °F 100% 29.68 in 1.8 mi WSW 13.8 mph 18.4 mph N/A   Mist
1:49 PM 59.0 °F 59.0 °F 100% 29.67 in 1.2 mi WSW 10.4 mph 18.4 mph N/A   Overcast
1:53 PM 60.1 °F 60.1 °F 100% 29.67 in 1.8 mi WSW 10.4 mph - N/A   Overcast
1:58 PM 60.8 °F 60.8 °F 100% 29.66 in 3.0 mi SW 10.4 mph - N/A   Overcast
2:17 PM 59.0 °F 59.0 °F 100% 29.66 in 2.0 mi SSW 8.1 mph - N/A   Overcast
2:24 PM 57.2 °F 57.2 °F 100% 29.66 in 1.5 mi SSW 5.8 mph - N/A   Overcast
2:27 PM 59.0 °F 59.0 °F 100% 29.66 in 3.0 mi SSW 5.8 mph - N/A   Overcast
2:53 PM 61.0 °F 61.0 °F 100% 29.66 in 10.0 mi SSW 6.9 mph - N/A   Overcast
3:41 PM 60.8 °F 59.0 °F 94% 29.65 in 10.0 mi Calm Calm - N/A   Scattered Clouds
3:53 PM 57.9 °F 57.9 °F 100% 29.65 in 10.0 mi South 6.9 mph - N/A   Partly Cloudy
4:12 PM 57.2 °F 57.2 °F 100% 29.65 in 5.0 mi SSW 5.8 mph - N/A   Scattered Clouds
4:53 PM 54.0 °F 54.0 °F 100% 29.64 in 9.0 mi SSW 6.9 mph - N/A   Partly Cloudy
5:53 PM 60.1 °F 60.1 °F 100% 29.66 in 10.0 mi SW 11.5 mph - N/A   Clear
6:53 PM 59.0 °F 57.9 °F 96% 29.66 in 10.0 mi SW 12.7 mph 19.6 mph N/A   Clear
7:53 PM 57.9 °F 57.0 °F 97% 29.66 in 10.0 mi SW 12.7 mph 20.7 mph N/A   Scattered Clouds
8:53 PM 59.0 °F 57.0 °F 93% 29.65 in 10.0 mi SW 13.8 mph - N/A   Clear
9:53 PM 59.0 °F 57.0 °F 93% 29.64 in 10.0 mi SW 13.8 mph 21.9 mph N/A   Clear
10:53 PM 59.0 °F 55.9 °F 90% 29.65 in 10.0 mi SW 12.7 mph 23.0 mph N/A   Clear
11:53 PM 57.9 °F 55.0 °F 90% 29.66 in 10.0 mi SW 10.4 mph - N/A   Clear